This is the latest recevied weather packets stored in our database for station/object WV6L-13. If no packets are shown the sender has not sent any weather packets the latest 10 day(s).
| Time | Temp. | Humidity | Pressure | Rain* | Wind** | Luminosity | Snow |
|---|---|---|---|---|---|---|---|
| 1778138393 | 16.67° C | 37% | 927.8 hPa | - | - | - | - |
| 1778138093 | 16.67° C | 38% | 927.7 hPa | - | - | - | - |
| 1778137792 | 17.22° C | 36% | 927.9 hPa | - | - | - | - |
| 1778137492 | 17.22° C | 35% | 927.6 hPa | - | - | - | - |
| 1778137193 | 17.22° C | 36% | 927.7 hPa | - | - | - | - |
| 1778136892 | 16.67° C | 36% | 927.6 hPa | - | - | - | - |
| 1778136592 | 17.22° C | 36% | 927.7 hPa | - | - | - | - |
| 1778136292 | 16.67° C | 37% | 927.6 hPa | - | - | - | - |
| 1778135992 | 17.78° C | 36% | 927.7 hPa | - | - | - | - |
| 1778135692 | 17.78° C | 37% | 927.4 hPa | - | - | - | - |
| 1778135392 | 17.78° C | 37% | 927.5 hPa | - | - | - | - |
| 1778135093 | 18.33° C | 36% | 927.4 hPa | - | - | - | - |
| 1778134792 | 18.33° C | 36% | 927.4 hPa | - | - | - | - |
| 1778134493 | 18.33° C | 36% | 927.4 hPa | - | - | - | - |
| 1778134193 | 18.89° C | 35% | 927.3 hPa | - | - | - | - |
| 1778133892 | 18.89° C | 35% | 927.4 hPa | - | - | - | - |
| 1778133592 | 18.33° C | 35% | 927.4 hPa | - | - | - | - |
| 1778133293 | 20° C | 33% | 927.2 hPa | - | - | - | - |
| 1778132992 | 20° C | 33% | 927.2 hPa | - | - | - | - |
| 1778132692 | 20° C | 33% | 927.3 hPa | - | - | - | - |
| 1778132392 | 19.44° C | 35% | 927.2 hPa | - | - | - | - |
| 1778132093 | 19.44° C | 34% | 927.1 hPa | - | - | - | - |
| 1778131793 | 19.44° C | 34% | 927.2 hPa | - | - | - | - |
| 1778131492 | 20° C | 34% | 927 hPa | - | - | - | - |
| 1778131192 | 20° C | 33% | 926.9 hPa | - | - | - | - |
* Rain since midnight (hover to see other rain measurements)
** Current wind speed in m/s (hover to see current wind gust speed)